Year,Month,Day,Hour,Minute,Value (Times are PST for temperature in C)
2014,07,26,00,00,12.70
2014,07,26,00,01,12.70
2014,07,26,00,02,12.70
2014,07,26,00,03,12.70
2014,07,26,00,04,12.70
2014,07,26,00,05,12.70
2014,07,26,00,06,12.70
2014,07,26,00,07,12.70
2014,07,26,00,08,12.70
2014,07,26,00,09,12.70
2014,07,26,00,10,12.70
2014,07,26,00,11,12.60
2014,07,26,00,12,12.60
2014,07,26,00,13,12.60
2014,07,26,00,14,12.60
2014,07,26,00,15,12.60
2014,07,26,00,16,12.60
2014,07,26,00,17,12.60
2014,07,26,00,18,12.60
2014,07,26,00,19,12.60
2014,07,26,00,20,12.60
2014,07,26,00,21,12.70
2014,07,26,00,22,12.70
2014,07,26,00,23,12.70
2014,07,26,00,24,12.70
2014,07,26,00,25,12.70
2014,07,26,00,26,12.70
2014,07,26,00,27,12.60
2014,07,26,00,28,12.60
2014,07,26,00,29,12.60
2014,07,26,00,30,12.60
2014,07,26,00,31,12.60
2014,07,26,00,32,12.60
2014,07,26,00,33,12.60
2014,07,26,00,34,12.50
2014,07,26,00,35,12.50
2014,07,26,00,36,12.50
2014,07,26,00,37,12.50
2014,07,26,00,38,12.50
2014,07,26,00,39,12.40
2014,07,26,00,40,12.40
2014,07,26,00,41,12.40
2014,07,26,00,42,12.40
2014,07,26,00,43,12.40
2014,07,26,00,44,12.40
2014,07,26,00,45,12.40
2014,07,26,00,46,12.40
2014,07,26,00,47,12.40
2014,07,26,00,48,12.40
2014,07,26,00,49,12.40
2014,07,26,00,50,12.40
2014,07,26,00,51,12.40
2014,07,26,00,52,12.30
2014,07,26,00,53,12.30
2014,07,26,00,54,12.30
2014,07,26,00,55,12.30
2014,07,26,00,56,12.30
2014,07,26,00,57,12.30
2014,07,26,00,58,12.30
2014,07,26,00,59,12.30
2014,07,26,01,00,12.30
2014,07,26,01,01,12.20
2014,07,26,01,02,12.20
2014,07,26,01,03,12.20
2014,07,26,01,04,12.20
2014,07,26,01,05,12.20
2014,07,26,01,06,12.20
2014,07,26,01,07,12.20
2014,07,26,01,08,12.20
2014,07,26,01,09,12.20
2014,07,26,01,10,12.20
2014,07,26,01,11,12.20
2014,07,26,01,12,12.20
2014,07,26,01,13,12.20
2014,07,26,01,14,12.20
2014,07,26,01,15,12.20
2014,07,26,01,16,12.20
2014,07,26,01,17,12.20
2014,07,26,01,18,12.20
2014,07,26,01,19,12.20
2014,07,26,01,20,12.20
2014,07,26,01,21,12.10
2014,07,26,01,22,12.10
2014,07,26,01,23,12.10
2014,07,26,01,24,12.10
2014,07,26,01,25,12.10
2014,07,26,01,26,12.10
2014,07,26,01,27,12.10
2014,07,26,01,28,12.10
2014,07,26,01,29,12.10
2014,07,26,01,30,12.10
2014,07,26,01,31,12.10
2014,07,26,01,32,12.10
2014,07,26,01,33,12.10
2014,07,26,01,34,12.00
2014,07,26,01,35,12.00
2014,07,26,01,36,12.00
2014,07,26,01,37,12.00
2014,07,26,01,38,12.00
2014,07,26,01,39,12.00
2014,07,26,01,40,12.00
2014,07,26,01,41,12.00
2014,07,26,01,42,12.00
2014,07,26,01,43,12.00
2014,07,26,01,44,12.00
2014,07,26,01,45,12.00
2014,07,26,01,46,12.00
2014,07,26,01,47,11.90
2014,07,26,01,48,11.90
2014,07,26,01,49,11.90
2014,07,26,01,50,11.90
2014,07,26,01,51,11.90
2014,07,26,01,52,11.90
2014,07,26,01,53,11.90
2014,07,26,01,54,11.90
2014,07,26,01,55,11.90
2014,07,26,01,56,11.90
2014,07,26,01,57,11.90
2014,07,26,01,58,11.90
2014,07,26,01,59,11.90
2014,07,26,02,00,11.90
2014,07,26,02,01,11.90
2014,07,26,02,02,11.90
2014,07,26,02,03,11.90
2014,07,26,02,04,11.90
2014,07,26,02,05,11.90
2014,07,26,02,06,11.90
2014,07,26,02,07,11.90
2014,07,26,02,08,11.90
2014,07,26,02,09,11.90
2014,07,26,02,10,11.90
2014,07,26,02,11,11.90
2014,07,26,02,12,11.90
2014,07,26,02,13,11.90
2014,07,26,02,14,11.90
2014,07,26,02,15,11.90
2014,07,26,02,16,11.90
2014,07,26,02,17,11.90
2014,07,26,02,18,11.90
2014,07,26,02,19,11.90
2014,07,26,02,20,11.90
2014,07,26,02,21,11.90
2014,07,26,02,22,11.90
2014,07,26,02,23,11.90
2014,07,26,02,24,11.90
2014,07,26,02,25,11.90
2014,07,26,02,26,11.90
2014,07,26,02,27,11.90
2014,07,26,02,28,11.90
2014,07,26,02,29,11.90
2014,07,26,02,30,11.90
2014,07,26,02,31,11.90
2014,07,26,02,32,11.90
2014,07,26,02,33,11.90
2014,07,26,02,34,11.90
2014,07,26,02,35,11.90
2014,07,26,02,36,11.90
2014,07,26,02,37,11.90
2014,07,26,02,38,11.90
2014,07,26,02,39,11.90
2014,07,26,02,40,11.90
2014,07,26,02,41,11.90
2014,07,26,02,42,11.90
2014,07,26,02,43,11.90
2014,07,26,02,44,11.90
2014,07,26,02,45,11.90
2014,07,26,02,46,11.90
2014,07,26,02,47,11.80
2014,07,26,02,48,11.80
2014,07,26,02,49,11.80
2014,07,26,02,50,11.80
2014,07,26,02,51,11.80
2014,07,26,02,52,11.80
2014,07,26,02,53,11.80
2014,07,26,02,54,11.80
2014,07,26,02,55,11.80
2014,07,26,02,56,11.80
2014,07,26,02,57,11.80
2014,07,26,02,58,11.80
2014,07,26,02,59,11.80
2014,07,26,03,00,11.80
2014,07,26,03,01,11.80
2014,07,26,03,02,11.80
2014,07,26,03,03,11.70
2014,07,26,03,04,11.70
2014,07,26,03,05,11.70
2014,07,26,03,06,11.70
2014,07,26,03,07,11.70
2014,07,26,03,08,11.70
2014,07,26,03,09,11.70
2014,07,26,03,10,11.70
2014,07,26,03,11,11.70
2014,07,26,03,12,11.70
2014,07,26,03,13,11.70
2014,07,26,03,14,11.70
2014,07,26,03,15,11.70
2014,07,26,03,16,11.70
2014,07,26,03,17,11.70
2014,07,26,03,18,11.70
2014,07,26,03,19,11.70
2014,07,26,03,20,11.70
2014,07,26,03,21,11.60
2014,07,26,03,22,11.60
2014,07,26,03,23,11.60
2014,07,26,03,24,11.60
2014,07,26,03,25,11.60
2014,07,26,03,26,11.60
2014,07,26,03,27,11.60
2014,07,26,03,28,11.60
2014,07,26,03,29,11.60
2014,07,26,03,30,11.60
2014,07,26,03,31,11.60
2014,07,26,03,32,11.60
2014,07,26,03,33,11.60
2014,07,26,03,34,11.60
2014,07,26,03,35,11.60
2014,07,26,03,36,11.60
2014,07,26,03,37,11.60
2014,07,26,03,38,11.60
2014,07,26,03,39,11.60
2014,07,26,03,40,11.60
2014,07,26,03,41,11.60
2014,07,26,03,42,11.60
2014,07,26,03,43,11.60
2014,07,26,03,44,11.50
2014,07,26,03,45,11.50
2014,07,26,03,46,11.50
2014,07,26,03,47,11.50
2014,07,26,03,48,11.50
2014,07,26,03,49,11.50
2014,07,26,03,50,11.50
2014,07,26,03,51,11.50
2014,07,26,03,52,11.50
2014,07,26,03,53,11.50
2014,07,26,03,54,11.50
2014,07,26,03,55,11.50
2014,07,26,03,56,11.50
2014,07,26,03,57,11.50
2014,07,26,03,58,11.50
2014,07,26,03,59,11.50
2014,07,26,04,00,11.50
2014,07,26,04,01,11.50
2014,07,26,04,02,11.50
2014,07,26,04,03,11.50
2014,07,26,04,04,11.50
2014,07,26,04,05,11.60
2014,07,26,04,06,11.60
2014,07,26,04,07,11.60
2014,07,26,04,08,11.60
2014,07,26,04,09,11.60
2014,07,26,04,10,11.50
2014,07,26,04,11,11.50
2014,07,26,04,12,11.50
2014,07,26,04,13,11.50
2014,07,26,04,14,11.50
2014,07,26,04,15,11.50
2014,07,26,04,16,11.50
2014,07,26,04,17,11.50
2014,07,26,04,18,11.50
2014,07,26,04,19,11.50
2014,07,26,04,20,11.40
2014,07,26,04,21,11.40
2014,07,26,04,22,11.40
2014,07,26,04,23,11.50
2014,07,26,04,24,11.50
2014,07,26,04,25,11.50
2014,07,26,04,26,11.50
2014,07,26,04,27,11.50
2014,07,26,04,28,11.50
2014,07,26,04,29,11.40
2014,07,26,04,30,11.40
2014,07,26,04,31,11.40
2014,07,26,04,32,11.40
2014,07,26,04,33,11.40
2014,07,26,04,34,11.40
2014,07,26,04,35,11.40
2014,07,26,04,36,11.40
2014,07,26,04,37,11.40
2014,07,26,04,38,11.40
2014,07,26,04,39,11.40
2014,07,26,04,40,11.40
2014,07,26,04,41,11.40
2014,07,26,04,42,11.40
2014,07,26,04,43,11.40
2014,07,26,04,44,11.40
2014,07,26,04,45,11.40
2014,07,26,04,46,11.40
2014,07,26,04,47,11.40
2014,07,26,04,48,11.40
2014,07,26,04,49,11.40
2014,07,26,04,50,11.40
2014,07,26,04,51,11.40
2014,07,26,04,52,11.40
2014,07,26,04,53,11.30
2014,07,26,04,54,11.30
2014,07,26,04,55,11.30
2014,07,26,04,56,11.30
2014,07,26,04,57,11.30
2014,07,26,04,58,11.30
2014,07,26,04,59,11.30
2014,07,26,05,00,11.30
2014,07,26,05,01,11.20
2014,07,26,05,02,11.20
2014,07,26,05,03,11.20
2014,07,26,05,04,11.20
2014,07,26,05,05,11.20
2014,07,26,05,06,11.20
2014,07,26,05,07,11.20
2014,07,26,05,08,11.20
2014,07,26,05,09,11.20
2014,07,26,05,10,11.20
2014,07,26,05,11,11.20
2014,07,26,05,12,11.20
2014,07,26,05,13,11.20
2014,07,26,05,14,11.20
2014,07,26,05,15,11.20
2014,07,26,05,16,11.20
2014,07,26,05,17,11.20
2014,07,26,05,18,11.20
2014,07,26,05,19,11.20
2014,07,26,05,20,11.20
2014,07,26,05,21,11.20
2014,07,26,05,22,11.20
2014,07,26,05,23,11.20
2014,07,26,05,24,11.20
2014,07,26,05,25,11.20
2014,07,26,05,26,11.20
2014,07,26,05,27,11.20
2014,07,26,05,28,11.20
2014,07,26,05,29,11.20
2014,07,26,05,30,11.20
2014,07,26,05,31,11.20
2014,07,26,05,32,11.10
2014,07,26,05,33,11.10
2014,07,26,05,34,11.10
2014,07,26,05,35,11.10
2014,07,26,05,36,11.10
2014,07,26,05,37,11.10
2014,07,26,05,38,11.20
2014,07,26,05,39,11.20
2014,07,26,05,40,11.20
2014,07,26,05,41,11.20
2014,07,26,05,42,11.30
2014,07,26,05,43,11.30
2014,07,26,05,44,11.30
2014,07,26,05,45,11.30
2014,07,26,05,46,11.30
2014,07,26,05,47,11.30
2014,07,26,05,48,11.30
2014,07,26,05,49,11.30
2014,07,26,05,50,11.20
2014,07,26,05,51,11.20
2014,07,26,05,52,11.20
2014,07,26,05,53,11.20
2014,07,26,05,54,11.20
2014,07,26,05,55,11.20
2014,07,26,05,56,11.20
2014,07,26,05,57,11.20
2014,07,26,05,58,11.20
2014,07,26,05,59,11.20
2014,07,26,06,00,11.20
2014,07,26,06,01,11.20
2014,07,26,06,02,11.20
2014,07,26,06,03,11.20
2014,07,26,06,04,11.20
2014,07,26,06,05,11.20
2014,07,26,06,06,11.20
2014,07,26,06,07,11.20
2014,07,26,06,08,11.20
2014,07,26,06,09,11.20
2014,07,26,06,10,11.20
2014,07,26,06,11,11.20
2014,07,26,06,12,11.20
2014,07,26,06,13,11.20
2014,07,26,06,14,11.20
2014,07,26,06,15,11.30
2014,07,26,06,16,11.30
2014,07,26,06,17,11.30
2014,07,26,06,18,11.30
2014,07,26,06,19,11.30
2014,07,26,06,20,11.30
2014,07,26,06,21,11.30
2014,07,26,06,22,11.30
2014,07,26,06,23,11.40
2014,07,26,06,24,11.40
2014,07,26,06,25,11.40
2014,07,26,06,26,11.40
2014,07,26,06,27,11.40
2014,07,26,06,28,11.40
2014,07,26,06,29,11.40
2014,07,26,06,30,11.50
2014,07,26,06,31,11.50
2014,07,26,06,32,11.50
2014,07,26,06,33,11.50
2014,07,26,06,34,11.60
2014,07,26,06,35,11.60
2014,07,26,06,36,11.60
2014,07,26,06,37,11.60
2014,07,26,06,38,11.60
2014,07,26,06,39,11.60
2014,07,26,06,40,11.60
2014,07,26,06,41,11.70
2014,07,26,06,42,11.70
2014,07,26,06,43,11.70
2014,07,26,06,44,11.70
2014,07,26,06,45,11.80
2014,07,26,06,46,11.80
2014,07,26,06,47,11.80
2014,07,26,06,48,11.80
2014,07,26,06,49,11.90
2014,07,26,06,50,11.90
2014,07,26,06,51,12.00
2014,07,26,06,52,12.00
2014,07,26,06,53,12.10
2014,07,26,06,54,12.10
2014,07,26,06,55,12.10
2014,07,26,06,56,12.20
2014,07,26,06,57,12.20
2014,07,26,06,58,12.20
2014,07,26,06,59,12.30
2014,07,26,07,00,12.30
2014,07,26,07,01,12.30
2014,07,26,07,02,12.40
2014,07,26,07,03,12.40
2014,07,26,07,04,12.40
2014,07,26,07,05,12.50
2014,07,26,07,06,12.50
2014,07,26,07,07,12.60
2014,07,26,07,08,12.60
2014,07,26,07,09,12.60
2014,07,26,07,10,12.70
2014,07,26,07,11,12.70
2014,07,26,07,12,12.70
2014,07,26,07,13,12.80
2014,07,26,07,14,12.80
2014,07,26,07,15,12.90
2014,07,26,07,16,12.90
2014,07,26,07,17,13.00
2014,07,26,07,18,13.10
2014,07,26,07,19,13.10
2014,07,26,07,20,13.20
2014,07,26,07,21,13.20
2014,07,26,07,22,13.30
2014,07,26,07,23,13.30
2014,07,26,07,24,13.40
2014,07,26,07,25,13.40
2014,07,26,07,26,13.50
2014,07,26,07,27,13.50
2014,07,26,07,28,13.60
2014,07,26,07,29,13.60
2014,07,26,07,30,13.70
2014,07,26,07,31,13.70
2014,07,26,07,32,13.80
2014,07,26,07,33,13.80
2014,07,26,07,34,13.90
2014,07,26,07,35,14.00
2014,07,26,07,36,14.00
2014,07,26,07,37,14.10
2014,07,26,07,38,14.10
2014,07,26,07,39,14.20
2014,07,26,07,40,14.30
2014,07,26,07,41,14.30
2014,07,26,07,42,14.40
2014,07,26,07,43,14.50
2014,07,26,07,44,14.60
2014,07,26,07,45,14.60
2014,07,26,07,46,14.70
2014,07,26,07,47,14.80
2014,07,26,07,48,14.90
2014,07,26,07,49,15.00
2014,07,26,07,50,15.10
2014,07,26,07,51,15.20
2014,07,26,07,52,15.30
2014,07,26,07,53,15.40
2014,07,26,07,54,15.50
2014,07,26,07,55,15.60
2014,07,26,07,56,15.80
2014,07,26,07,57,15.90
2014,07,26,07,58,16.00
2014,07,26,07,59,16.10
2014,07,26,08,00,16.20
2014,07,26,08,01,16.20
2014,07,26,08,02,16.30
2014,07,26,08,03,16.50
2014,07,26,08,04,16.50
2014,07,26,08,05,16.50
2014,07,26,08,06,16.60
2014,07,26,08,07,16.60
2014,07,26,08,08,16.60
2014,07,26,08,09,16.70
2014,07,26,08,10,16.80
2014,07,26,08,11,16.80
2014,07,26,08,12,16.90
2014,07,26,08,13,17.00
2014,07,26,08,14,17.00
2014,07,26,08,15,17.10
2014,07,26,08,16,17.10
2014,07,26,08,17,17.20
2014,07,26,08,18,17.20
2014,07,26,08,19,17.20
2014,07,26,08,20,17.30
2014,07,26,08,21,17.30
2014,07,26,08,22,17.30
2014,07,26,08,23,17.30
2014,07,26,08,24,17.30
2014,07,26,08,25,17.30
2014,07,26,08,26,17.40
2014,07,26,08,27,17.40
2014,07,26,08,28,17.40
2014,07,26,08,29,17.40
2014,07,26,08,30,17.40
2014,07,26,08,31,17.50
2014,07,26,08,32,17.50
2014,07,26,08,33,17.50
2014,07,26,08,34,17.60
2014,07,26,08,35,17.60
2014,07,26,08,36,17.70
2014,07,26,08,37,17.80
2014,07,26,08,38,17.80
2014,07,26,08,39,17.90
2014,07,26,08,40,17.90
2014,07,26,08,41,18.00
2014,07,26,08,42,18.00
2014,07,26,08,43,18.10
2014,07,26,08,44,18.20
2014,07,26,08,45,18.20
2014,07,26,08,46,18.30
2014,07,26,08,47,18.30
2014,07,26,08,48,18.40
2014,07,26,08,49,18.40
2014,07,26,08,50,18.50
2014,07,26,08,51,18.50
2014,07,26,08,52,18.60
2014,07,26,08,53,18.60
2014,07,26,08,54,18.60
2014,07,26,08,55,18.60
2014,07,26,08,56,18.60
2014,07,26,08,57,18.70
2014,07,26,08,58,18.70
2014,07,26,08,59,18.70
2014,07,26,09,00,18.70
2014,07,26,09,01,18.70
2014,07,26,09,02,18.70
2014,07,26,09,03,18.80
2014,07,26,09,04,18.80
2014,07,26,09,05,18.80
2014,07,26,09,06,18.80
2014,07,26,09,07,18.80
2014,07,26,09,08,18.80
2014,07,26,09,09,18.80
2014,07,26,09,10,18.70
2014,07,26,09,11,18.70
2014,07,26,09,12,18.70
2014,07,26,09,13,18.70
2014,07,26,09,14,18.70
2014,07,26,09,15,18.80
2014,07,26,09,16,18.80
2014,07,26,09,17,18.90
2014,07,26,09,18,18.90
2014,07,26,09,19,18.90
2014,07,26,09,20,19.00
2014,07,26,09,21,19.10
2014,07,26,09,22,19.10
2014,07,26,09,23,19.10
2014,07,26,09,24,19.20
2014,07,26,09,25,19.30
2014,07,26,09,26,19.30
2014,07,26,09,27,19.30
2014,07,26,09,28,19.30
2014,07,26,09,29,19.30
2014,07,26,09,30,19.30
2014,07,26,09,31,19.30
2014,07,26,09,32,19.30
2014,07,26,09,33,19.30
2014,07,26,09,34,19.30
2014,07,26,09,35,19.30
2014,07,26,09,36,19.30
2014,07,26,09,37,19.30
2014,07,26,09,38,19.30
2014,07,26,09,39,19.30
2014,07,26,09,40,19.40
2014,07,26,09,41,19.40
2014,07,26,09,42,19.50
2014,07,26,09,43,19.50
2014,07,26,09,44,19.50
2014,07,26,09,45,19.60
2014,07,26,09,46,19.60
2014,07,26,09,47,19.50
2014,07,26,09,48,19.50
2014,07,26,09,49,19.40
2014,07,26,09,50,19.40
2014,07,26,09,51,19.40
2014,07,26,09,52,19.30
2014,07,26,09,53,19.30
2014,07,26,09,54,19.30
2014,07,26,09,55,19.30
2014,07,26,09,56,19.30
2014,07,26,09,57,19.40
2014,07,26,09,58,19.40
2014,07,26,09,59,19.50
2014,07,26,10,00,19.50
2014,07,26,10,01,19.60
2014,07,26,10,02,19.60
2014,07,26,10,03,19.60
2014,07,26,10,04,19.70
2014,07,26,10,05,19.70
2014,07,26,10,06,19.70
2014,07,26,10,07,19.80
2014,07,26,10,08,19.80
2014,07,26,10,09,19.80
2014,07,26,10,10,19.80
2014,07,26,10,11,19.90
2014,07,26,10,12,19.90
2014,07,26,10,13,19.90
2014,07,26,10,14,19.90
2014,07,26,10,15,20.00
2014,07,26,10,16,20.00
2014,07,26,10,17,20.10
2014,07,26,10,18,20.10
2014,07,26,10,19,20.10
2014,07,26,10,20,20.10
2014,07,26,10,21,20.20
2014,07,26,10,22,20.20
2014,07,26,10,23,20.20
2014,07,26,10,24,20.20
2014,07,26,10,25,20.20
2014,07,26,10,26,20.30
2014,07,26,10,27,20.30
2014,07,26,10,28,20.30
2014,07,26,10,29,20.30
2014,07,26,10,30,20.30
2014,07,26,10,31,20.30
2014,07,26,10,32,20.30
2014,07,26,10,33,20.30
2014,07,26,10,34,20.30
2014,07,26,10,35,20.30
2014,07,26,10,36,20.30
2014,07,26,10,37,20.20
2014,07,26,10,38,20.10
2014,07,26,10,39,20.10
2014,07,26,10,40,20.10
2014,07,26,10,41,20.10
2014,07,26,10,42,20.00
2014,07,26,10,43,20.00
2014,07,26,10,44,20.00
2014,07,26,10,45,20.10
2014,07,26,10,46,20.20
2014,07,26,10,47,20.20
2014,07,26,10,48,20.20
2014,07,26,10,49,20.30
2014,07,26,10,50,20.40
2014,07,26,10,51,20.40
2014,07,26,10,52,20.40
2014,07,26,10,53,20.40
2014,07,26,10,54,20.40
2014,07,26,10,55,20.40
2014,07,26,10,56,20.40
2014,07,26,10,57,20.50
2014,07,26,10,58,20.50
2014,07,26,10,59,20.50
2014,07,26,11,00,20.50
2014,07,26,11,01,20.50
2014,07,26,11,02,20.50
2014,07,26,11,03,20.50
2014,07,26,11,04,20.50
2014,07,26,11,05,20.50
2014,07,26,11,06,20.60
2014,07,26,11,07,20.60
2014,07,26,11,08,20.60
2014,07,26,11,09,20.60
2014,07,26,11,10,20.60
2014,07,26,11,11,20.70
2014,07,26,11,12,20.70
2014,07,26,11,13,20.70
2014,07,26,11,14,20.80
2014,07,26,11,15,20.80
2014,07,26,11,16,20.80
2014,07,26,11,17,20.90
2014,07,26,11,18,20.90
2014,07,26,11,19,20.90
2014,07,26,11,20,20.90
2014,07,26,11,21,20.90
2014,07,26,11,22,20.90
2014,07,26,11,23,20.90
2014,07,26,11,24,20.80
2014,07,26,11,25,20.70
2014,07,26,11,26,20.70
2014,07,26,11,27,20.70
2014,07,26,11,28,20.60
2014,07,26,11,29,20.60
2014,07,26,11,30,20.60
2014,07,26,11,31,20.60
2014,07,26,11,32,20.60
2014,07,26,11,33,20.60
2014,07,26,11,34,20.70
2014,07,26,11,35,20.70
2014,07,26,11,36,20.70
2014,07,26,11,37,20.70
2014,07,26,11,38,20.80
2014,07,26,11,39,20.80
2014,07,26,11,40,20.80
2014,07,26,11,41,20.90
2014,07,26,11,42,20.90
2014,07,26,11,43,20.90
2014,07,26,11,44,21.00
2014,07,26,11,45,21.00
2014,07,26,11,46,21.10
2014,07,26,11,47,21.10
2014,07,26,11,48,21.10
2014,07,26,11,49,21.10
2014,07,26,11,50,21.10
2014,07,26,11,51,21.10
2014,07,26,11,52,21.20
2014,07,26,11,53,21.20
2014,07,26,11,54,21.20
2014,07,26,11,55,21.20
2014,07,26,11,56,21.20
2014,07,26,11,57,21.20
2014,07,26,11,58,21.20
2014,07,26,11,59,21.20
2014,07,26,12,00,21.20
2014,07,26,12,01,21.20
2014,07,26,12,02,21.20
2014,07,26,12,03,21.20
2014,07,26,12,04,21.20
2014,07,26,12,05,21.20
2014,07,26,12,06,21.30
2014,07,26,12,07,21.30
2014,07,26,12,08,21.30
2014,07,26,12,09,21.30
2014,07,26,12,10,21.20
2014,07,26,12,11,21.10
2014,07,26,12,12,21.10
2014,07,26,12,13,21.10
2014,07,26,12,14,21.10
2014,07,26,12,15,21.10
2014,07,26,12,16,21.10
2014,07,26,12,17,21.10
2014,07,26,12,18,21.10
2014,07,26,12,19,21.10
2014,07,26,12,20,21.20
2014,07,26,12,21,21.20
2014,07,26,12,22,21.20
2014,07,26,12,23,21.20
2014,07,26,12,24,21.20
2014,07,26,12,25,21.30
2014,07,26,12,26,21.30
2014,07,26,12,27,21.40
2014,07,26,12,28,21.40
2014,07,26,12,29,21.50
2014,07,26,12,30,21.50
2014,07,26,12,31,21.50
2014,07,26,12,32,21.60
2014,07,26,12,33,21.60
2014,07,26,12,34,21.60
2014,07,26,12,35,21.60
2014,07,26,12,36,21.60
2014,07,26,12,37,21.60
2014,07,26,12,38,21.60
2014,07,26,12,39,21.50
2014,07,26,12,40,21.50
2014,07,26,12,41,21.50
2014,07,26,12,42,21.40
2014,07,26,12,43,21.40
2014,07,26,12,44,21.20
2014,07,26,12,45,21.10
2014,07,26,12,46,21.00
2014,07,26,12,47,20.90
2014,07,26,12,48,21.00
2014,07,26,12,49,21.00
2014,07,26,12,50,21.10
2014,07,26,12,51,21.20
2014,07,26,12,52,21.20
2014,07,26,12,53,21.20
2014,07,26,12,54,21.30
2014,07,26,12,55,21.30
2014,07,26,12,56,21.40
2014,07,26,12,57,21.40
2014,07,26,12,58,21.50
2014,07,26,12,59,21.60
2014,07,26,13,00,21.60
2014,07,26,13,01,21.70
2014,07,26,13,02,21.70
2014,07,26,13,03,21.70
2014,07,26,13,04,21.70
2014,07,26,13,05,21.80
2014,07,26,13,06,21.90
2014,07,26,13,07,21.90
2014,07,26,13,08,21.90
2014,07,26,13,09,21.90
2014,07,26,13,10,21.90
2014,07,26,13,11,22.00
2014,07,26,13,12,22.00
2014,07,26,13,13,22.10
2014,07,26,13,14,22.10
2014,07,26,13,15,22.20
2014,07,26,13,16,22.20
2014,07,26,13,17,22.20
2014,07,26,13,18,22.20
2014,07,26,13,19,22.20
2014,07,26,13,20,22.30
2014,07,26,13,21,22.40
2014,07,26,13,22,22.40
2014,07,26,13,23,22.50
2014,07,26,13,24,22.60
2014,07,26,13,25,22.60
2014,07,26,13,26,22.60
2014,07,26,13,27,22.60
2014,07,26,13,28,22.60
2014,07,26,13,29,22.60
2014,07,26,13,30,22.60
2014,07,26,13,31,22.70
2014,07,26,13,32,22.70
2014,07,26,13,33,22.70
2014,07,26,13,34,22.70
2014,07,26,13,35,22.70
2014,07,26,13,36,22.80
2014,07,26,13,37,22.80
2014,07,26,13,38,22.80
2014,07,26,13,39,22.80
2014,07,26,13,40,22.80
2014,07,26,13,41,22.80
2014,07,26,13,42,22.80
2014,07,26,13,43,22.70
2014,07,26,13,44,22.60
2014,07,26,13,45,22.60
2014,07,26,13,46,22.50
2014,07,26,13,47,22.50
2014,07,26,13,48,22.50
2014,07,26,13,49,22.40
2014,07,26,13,50,22.40
2014,07,26,13,51,22.40
2014,07,26,13,52,22.40
2014,07,26,13,53,22.40
2014,07,26,13,54,22.40
2014,07,26,13,55,22.30
2014,07,26,13,56,22.20
2014,07,26,13,57,22.20
2014,07,26,13,58,22.30
2014,07,26,13,59,22.40
2014,07,26,14,00,22.50
2014,07,26,14,01,22.40
2014,07,26,14,02,22.30
2014,07,26,14,03,22.30
2014,07,26,14,04,22.20
2014,07,26,14,05,21.90
2014,07,26,14,06,21.70
2014,07,26,14,07,21.60
2014,07,26,14,08,21.60
2014,07,26,14,09,21.60
2014,07,26,14,10,21.70
2014,07,26,14,11,21.70
2014,07,26,14,12,21.80
2014,07,26,14,13,21.80
2014,07,26,14,14,21.80
2014,07,26,14,15,21.80
2014,07,26,14,16,21.80
2014,07,26,14,17,21.90
2014,07,26,14,18,22.00
2014,07,26,14,19,22.10
2014,07,26,14,20,22.10
2014,07,26,14,21,22.10
2014,07,26,14,22,22.10
2014,07,26,14,23,22.10
2014,07,26,14,24,22.10
2014,07,26,14,25,22.10
2014,07,26,14,26,22.20
2014,07,26,14,27,22.20
2014,07,26,14,28,22.30
2014,07,26,14,29,22.30
2014,07,26,14,30,22.30
2014,07,26,14,31,22.40
2014,07,26,14,32,22.50
2014,07,26,14,33,22.50
2014,07,26,14,34,22.60
2014,07,26,14,35,22.60
2014,07,26,14,36,22.60
2014,07,26,14,37,22.60
2014,07,26,14,38,22.60
2014,07,26,14,39,22.60
2014,07,26,14,40,22.60
2014,07,26,14,41,22.50
2014,07,26,14,42,22.50
2014,07,26,14,43,22.50
2014,07,26,14,44,22.50
2014,07,26,14,45,22.60
2014,07,26,14,46,22.70
2014,07,26,14,47,22.80
2014,07,26,14,48,22.80
2014,07,26,14,49,22.70
2014,07,26,14,50,22.50
2014,07,26,14,51,22.30
2014,07,26,14,52,22.00
2014,07,26,14,53,21.80
2014,07,26,14,54,21.60
2014,07,26,14,55,21.30
2014,07,26,14,56,21.10
2014,07,26,14,57,20.90
2014,07,26,14,58,20.80
2014,07,26,14,59,20.80
2014,07,26,15,00,20.70
2014,07,26,15,01,20.70
2014,07,26,15,02,20.60
2014,07,26,15,03,20.60
2014,07,26,15,04,20.60
2014,07,26,15,05,20.70
2014,07,26,15,06,20.60
2014,07,26,15,07,20.70
2014,07,26,15,08,20.70
2014,07,26,15,09,20.70
2014,07,26,15,10,20.70
2014,07,26,15,11,20.60
2014,07,26,15,12,20.50
2014,07,26,15,13,20.50
2014,07,26,15,14,20.40
2014,07,26,15,15,20.40
2014,07,26,15,16,20.40
2014,07,26,15,17,20.30
2014,07,26,15,18,20.20
2014,07,26,15,19,20.10
2014,07,26,15,20,20.10
2014,07,26,15,21,20.00
2014,07,26,15,22,19.90
2014,07,26,15,23,19.80
2014,07,26,15,24,19.70
2014,07,26,15,25,19.70
2014,07,26,15,26,19.70
2014,07,26,15,27,19.60
2014,07,26,15,28,19.60
2014,07,26,15,29,19.60
2014,07,26,15,30,19.60
2014,07,26,15,31,19.60
2014,07,26,15,32,19.60
2014,07,26,15,33,19.70
2014,07,26,15,34,19.70
2014,07,26,15,35,19.80
2014,07,26,15,36,19.80
2014,07,26,15,37,19.80
2014,07,26,15,38,19.90
2014,07,26,15,39,20.00
2014,07,26,15,40,20.10
2014,07,26,15,41,20.10
2014,07,26,15,42,20.10
2014,07,26,15,43,20.10
2014,07,26,15,44,20.20
2014,07,26,15,45,20.20
2014,07,26,15,46,20.20
2014,07,26,15,47,20.20
2014,07,26,15,48,20.20
2014,07,26,15,49,20.10
2014,07,26,15,50,20.20
2014,07,26,15,51,20.20
2014,07,26,15,52,20.10
2014,07,26,15,53,20.10
2014,07,26,15,54,20.10
2014,07,26,15,55,20.20
2014,07,26,15,56,20.20
2014,07,26,15,57,20.20
2014,07,26,15,58,20.10
2014,07,26,15,59,20.10
2014,07,26,16,00,20.20
2014,07,26,16,01,20.20
2014,07,26,16,02,20.30
2014,07,26,16,03,20.30
2014,07,26,16,04,20.30
2014,07,26,16,05,20.30
2014,07,26,16,06,20.30
2014,07,26,16,07,20.20
2014,07,26,16,08,20.10
2014,07,26,16,09,20.10
2014,07,26,16,10,20.00
2014,07,26,16,11,19.90
2014,07,26,16,12,19.80
2014,07,26,16,13,19.90
2014,07,26,16,14,19.90
2014,07,26,16,15,20.00
2014,07,26,16,16,20.10
2014,07,26,16,17,20.00
2014,07,26,16,18,20.00
2014,07,26,16,19,20.00
2014,07,26,16,20,20.10
2014,07,26,16,21,20.10
2014,07,26,16,22,20.10
2014,07,26,16,23,20.10
2014,07,26,16,24,20.10
2014,07,26,16,25,20.10
2014,07,26,16,26,20.20
2014,07,26,16,27,20.30
2014,07,26,16,28,20.40
2014,07,26,16,29,20.40
2014,07,26,16,30,20.40
2014,07,26,16,31,20.40
2014,07,26,16,32,20.50
2014,07,26,16,33,20.50
2014,07,26,16,34,20.50
2014,07,26,16,35,20.50
2014,07,26,16,36,20.50
2014,07,26,16,37,20.40
2014,07,26,16,38,20.40
2014,07,26,16,39,20.40
2014,07,26,16,40,20.40
2014,07,26,16,41,20.30
2014,07,26,16,42,20.30
2014,07,26,16,43,20.30
2014,07,26,16,44,20.40
2014,07,26,16,45,20.40
2014,07,26,16,46,20.40
2014,07,26,16,47,20.50
2014,07,26,16,48,20.60
2014,07,26,16,49,20.70
2014,07,26,16,50,20.80
2014,07,26,16,51,21.00
2014,07,26,16,52,21.10
2014,07,26,16,53,21.20
2014,07,26,16,54,21.30
2014,07,26,16,55,21.40
2014,07,26,16,56,21.60
2014,07,26,16,57,21.70
2014,07,26,16,58,21.80
2014,07,26,16,59,21.90
2014,07,26,17,00,21.90
2014,07,26,17,01,22.00
2014,07,26,17,02,22.00
2014,07,26,17,03,22.10
2014,07,26,17,04,22.10
2014,07,26,17,05,22.00
2014,07,26,17,06,21.90
2014,07,26,17,07,21.70
2014,07,26,17,08,21.60
2014,07,26,17,09,21.50
2014,07,26,17,10,21.50
2014,07,26,17,11,21.50
2014,07,26,17,12,21.60
2014,07,26,17,13,21.60
2014,07,26,17,14,21.60
2014,07,26,17,15,21.60
2014,07,26,17,16,21.60
2014,07,26,17,17,21.60
2014,07,26,17,18,21.70
2014,07,26,17,19,21.70